Wind_Speed
3 3 2 1 1 1 0 0 1 1 2 3 3 4 6 7 8 9 10 11 12 13 12 12 11 10 8 7 8 7 8 6 7 14 11 9 13 10 10 11 11 10 8 8 9 10 10 12 16 15 8 4 0 2 1 1 2 4 3 2 3 3 3 2 1 3 1 2 4 4 6 7 4 3 2 1 1 2 4 5 5 5 7 6 6 11 12 21
2 2 1 1 1 0 0 0 0 1 2 3 4 5 7 8 10 11 11 12 12 12 11 11 11 9 7 6 8 8 8 7 4 9 11 13 14 9 9 9 10 10 9 8 8 9 8 7 12 13 7 3 2 1 0 1 2 2 2 1 4 5 4 2 1 2 2 2 5 5 5 6 5 5 3 2 5 4 6 7 5 7 10 8 6 16 20 26
2 2 1 1 1 0 0 1 1 2 2 4 5 7 9 10 11 11 10 10 10 8 8 9 10 9 8 7 7 8 7 7 3 4 11 16 12 8 8 8 9 9 8 7 7 7 6 8 12 9 3 3 3 1 1 1 1 1 2 1 5 4 2 1 2 1 3 1 4 5 5 5 5 5 3 4 6 6 9 9 6 9 12 9 5 13 20 23
2 2 2 1 0 1 1 2 2 2 4 6 7 9 10 10 10 9 9 9 6 4 6 9 9 6 5 7 7 7 4 5 2 5 12 14 10 8 7 8 9 8 7 7 7 8 8 11 11 5 1 3 4 1 1 1 0 0 2 4 6 2 3 3 2 2 4 2 2 4 4 4 5 4 4 4 4 7 10 10 10 13 13 10 7 9 16 18
3 2 1 1 1 1 2 2 2 4 6 7 8 9 9 8 8 8 9 7 2 3 6 10 9 2 4 6 7 5 2 4 3 7 13 13 9 7 7 8 8 8 7 7 8 9 10 10 6 3 1 2 4 3 1 2 2 0 2 6 4 1 2 3 1 3 4 3 4 3 5 5 4 4 5 7 7 8 7 8 12 14 12 11 11 10 13 14
2 2 1 1 2 1 1 2 4 5 6 7 8 8 6 7 7 9 8 3 2 3 6 9 10 7 4 5 4 4 4 2 5 10 14 13 11 8 7 8 8 8 8 8 9 9 9 6 3 2 1 1 3 0 2 3 3 1 5 3 2 1 2 2 1 3 3 3 3 3 4 3 2 5 5 9 13 10 6 7 10 12 13 13 12 11 12 13
2 2 2 2 1 1 3 4 4 5 6 7 7 5 5 6 7 8 6 2 2 2 5 7 8 7 4 4 1 0 4 1 7 13 14 14 13 10 7 6 7 8 8 9 9 6 5 4 2 3 1 2 3 1 2 4 2 3 4 4 2 2 3 2 1 3 3 3 4 2 3 3 4 5 4 9 14 11 9 8 8 10 11 11 9 9 11 13
3 3 3 2 1 3 3 3 4 6 7 6 4 3 4 5 7 8 5 3 2 2 3 5 5 4 2 0 1 3 2 3 10 14 14 15 15 13 8 6 7 10 11 11 10 6 4 5 4 2 1 3 2 1 1 4 3 2 4 4 3 3 3 3 2 4 4 5 5 1 4 6 6 3 6 15 15 11 12 10 10 11 11 10 9 10 10 10
4 4 3 2 3 3 3 3 5 6 6 4 2 2 3 7 10 9 6 4 3 0 3 6 6 6 6 3 1 3 3 6 11 12 13 15 15 14 9 7 8 11 13 10 6 4 2 2 4 1 2 2 1 1 1 2 2 3 3 3 3 4 3 3 3 5 6 4 2 2 6 8 6 3 9 18 17 13 12 10 12 12 12 13 12 12 11 10
5 4 4 3 3 2 3 4 5 4 3 2 3 3 3 8 10 5 4 5 3 3 4 6 6 8 8 4 3 2 4 8 10 11 13 14 13 13 10 9 9 10 11 5 4 6 1 2 4 1 3 1 1 0 0 2 3 3 2 3 4 6 5 3 4 5 5 4 3 4 8 8 4 1 7 14 12 9 8 11 12 10 12 14 12 12 11 12
6 5 4 4 3 2 3 4 4 2 2 2 3 3 3 6 9 8 2 3 3 4 4 5 6 9 8 5 5 1 5 8 9 12 13 12 11 11 12 11 8 9 9 3 4 5 1 5 5 2 2 0 1 2 2 2 1 2 1 5 7 6 6 5 6 6 2 3 4 5 8 9 2 3 11 17 12 6 6 10 11 10 12 13 13 12 10 10
6 5 4 3 2 3 4 4 2 1 2 3 4 4 4 5 5 8 7 3 1 2 3 5 8 10 7 7 4 1 6 8 9 11 9 11 10 5 9 12 10 11 8 4 5 5 5 8 5 4 1 0 0 2 2 2 1 3 2 3 8 6 6 8 6 4 3 2 3 4 6 8 4 9 17 18 13 6 6 10 10 11 12 12 12 10 9 10
6 4 3 2 2 4 4 2 2 1 2 3 4 5 5 6 4 2 5 6 1 1 3 5 8 8 5 3 1 3 7 8 9 10 7 10 9 3 5 9 10 11 10 6 5 7 6 6 5 4 1 3 1 1 0 1 2 2 2 0 5 7 6 8 4 4 4 3 3 5 4 8 7 12 15 13 11 8 7 11 11 9 9 9 9 9 10 10
4 3 2 2 3 3 3 1 1 1 2 3 5 7 6 5 4 4 4 5 2 1 2 4 6 5 4 1 3 4 7 6 8 10 8 11 11 7 7 9 10 10 8 7 4 6 6 4 5 4 2 3 1 1 2 3 2 2 2 0 2 3 5 7 1 5 3 3 3 6 2 9 11 10 11 11 9 7 9 12 11 9 8 8 8 8 9 9
3 2 2 2 3 2 1 1 0 1 2 4 6 5 4 4 5 3 2 2 3 2 2 5 6 3 4 0 3 4 7 6 8 10 9 11 12 10 11 14 14 9 5 4 4 5 5 3 4 3 2 3 2 3 4 4 3 2 2 4 4 1 5 9 4 6 4 3 4 5 3 9 13 10 9 8 6 4 8 10 10 10 10 9 8 8 9 9
3 2 1 2 2 1 2 2 1 2 3 4 4 5 6 6 6 5 3 2 4 4 4 7 7 2 4 2 3 5 5 5 9 11 8 8 9 9 13 16 12 6 5 5 4 5 5 3 3 2 2 5 4 3 3 5 5 3 3 3 5 4 5 7 6 1 2 2 1 3 4 7 12 13 10 8 9 9 10 13 12 10 11 10 9 9 8 8
3 2 1 1 1 3 3 3 3 3 4 5 7 7 7 6 5 3 1 2 3 4 4 7 8 3 3 3 3 5 6 7 12 13 11 11 10 10 11 9 7 8 9 9 5 4 4 3 2 0 3 5 3 2 4 5 5 4 4 3 4 4 5 5 7 6 3 2 3 4 5 10 15 17 19 14 10 11 12 14 15 12 11 10 9 9 8 8
3 1 1 1 2 4 5 6 5 4 6 7 7 8 11 12 11 9 5 2 3 6 4 6 8 4 2 5 3 7 10 11 12 12 14 14 9 9 9 6 6 9 10 7 3 2 3 2 2 2 4 5 5 6 5 2 3 3 4 3 5 5 5 6 6 5 4 3 5 5 7 13 16 17 20 18 11 10 13 13 14 13 12 11 8 8 8 7
3 1 1 3 3 5 6 8 7 6 6 7 6 6 7 8 10 14 16 10 2 3 1 4 5 3 2 5 5 11 13 11 8 8 17 18 10 9 9 5 4 4 5 4 4 3 2 3 4 4 4 4 3 4 4 4 4 4 5 3 5 7 6 8 8 5 3 3 6 7 9 13 17 18 20 20 13 11 14 12 10 11 10 8 7 8 8 7
2 1 3 3 4 6 8 9 7 5 5 4 3 3 1 4 4 6 12 11 4 3 3 3 1 3 2 4 7 14 11 6 4 8 22 22 11 8 7 3 3 4 2 1 4 2 4 5 4 1 4 5 3 1 3 3 3 3 3 3 6 6 7 8 7 5 4 4 6 7 10 13 17 19 18 19 15 12 13 10 9 9 7 7 7 9 8 8
3 3 5 4 7 10 11 9 6 3 2 1 0 2 1 0 3 1 4 4 2 2 2 2 1 3 2 3 7 11 5 2 3 10 26 22 8 5 5 5 6 4 3 3 3 3 5 6 2 4 5 5 4 4 2 2 2 2 3 5 7 5 7 8 5 4 6 6 7 8 10 14 16 18 17 15 13 12 10 8 9 8 6 5 5 5 4 3
5 6 6 8 13 14 12 9 5 3 2 1 2 5 4 4 4 2 2 2 3 4 4 3 3 2 3 2 7 8 2 5 6 10 24 22 8 4 3 4 5 2 5 3 4 6 5 4 4 4 1 3 4 4 3 4 2 3 3 3 6 5 6 8 3 4 7 5 8 11 10 13 16 15 13 12 9 8 8 6 7 5 3 4 5 4 4 5
7 9 8 12 17 14 10 7 5 3 3 4 7 8 7 5 3 3 3 3 1 4 4 4 4 4 5 3 10 10 4 5 5 7 17 16 6 3 3 5 5 3 6 6 5 5 4 3 5 3 4 4 5 4 5 5 3 3 4 3 6 5 4 5 3 7 8 4 5 10 8 9 11 10 9 10 8 7 8 7 5 3 3 4 5 6 8 8
10 10 10 16 18 11 8 7 4 5 7 8 11 10 7 5 4 1 2 2 2 2 1 1 1 3 4 3 8 9 3 2 2 6 12 10 4 3 3 3 5 5 6 5 5 6 1 5 3 4 5 4 5 6 7 6 5 5 4 2 5 6 4 5 6 10 9 4 2 7 8 6 5 8 9 8 9 8 9 11 11 9 5 4 6 7 8 7
12 11 12 17 17 9 6 5 5 8 8 8 9 7 6 5 7 5 2 3 4 3 2 2 1 3 4 3 5 3 1 1 1 5 8 8 4 3 2 1 3 5 8 6 6 5 1 4 2 4 5 5 5 5 5 4 6 7 4 4 5 7 7 6 8 10 7 5 3 6 6 6 5 7 8 7 8 9 8 10 11 11 9 8 8 7 6 6
14 13 14 18 16 8 2 2 5 7 4 3 5 4 3 3 7 8 3 4 4 3 4 4 1 6 8 5 5 1 3 3 3 3 7 8 4 1 3 4 3 4 6 4 4 2 2 4 3 3 3 6 6 4 3 4 6 6 4 3 4 6 8 8 7 6 3 4 5 4 4 5 6 6 8 6 7 8 8 9 9 9 9 7 6 4 5 5
15 14 15 17 14 6 1 2 5 3 1 0 2 3 2 2 6 7 3 4 5 2 4 4 2 6 8 8 8 4 3 6 5 5 7 10 7 1 4 6 4 4 3 2 4 1 2 6 7 6 5 6 6 4 4 3 5 6 4 2 7 9 10 8 4 1 2 4 7 2 5 2 6 6 9 7 7 8 9 8 8 8 7 3 1 1 2 3
16 14 14 14 11 3 0 4 5 1 0 2 4 4 4 3 5 3 5 4 4 2 1 3 3 5 7 9 9 6 1 5 3 5 8 14 13 2 4 5 3 5 4 5 5 5 2 5 6 6 6 5 3 3 4 2 2 8 6 5 8 8 8 6 1 3 2 2 6 5 2 1 6 7 8 6 6 8 8 7 7 3 4 6 5 5 4 5
15 14 14 12 8 4 4 4 3 2 4 6 6 4 2 1 3 3 6 3 2 2 1 2 4 6 8 8 8 6 3 3 2 5 7 13 17 7 3 2 2 3 4 6 3 5 2 1 1 3 5 2 4 6 5 1 2 8 6 7 7 3 2 1 1 1 2 3 4 6 2 2 6 8 7 4 5 5 7 7 7 6 4 5 5 6 6 5
14 14 13 11 6 4 4 3 1 3 6 6 6 4 1 2 4 5 5 2 1 3 2 3 3 4 8 8 7 7 5 3 2 5 5 6 14 11 3 1 4 5 5 6 3 3 3 2 2 3 2 2 4 6 4 4 4 6 6 6 6 5 3 2 1 3 4 3 6 7 1 3 4 7 5 4 3 3 6 7 7 7 6 6 5 6 6 6
13 13 12 9 5 2 3 2 3 4 5 5 5 4 2 3 4 7 4 1 1 4 5 5 4 4 8 6 5 7 5 5 5 6 6 4 10 12 6 6 5 5 6 7 6 7 7 4 2 2 1 0 2 4 4 1 1 4 5 4 5 5 4 4 5 4 5 4 7 5 2 0 3 6 5 7 8 5 6 7 7 7 7 7 6 6 7 6
13 12 10 6 3 2 4 2 4 5 5 6 5 3 4 4 6 4 1 3 2 3 3 4 4 6 7 4 6 7 5 6 6 6 5 4 7 8 8 7 5 5 7 6 7 8 5 3 4 4 2 2 3 4 6 5 6 6 4 5 6 5 5 5 5 3 2 6 9 4 4 3 5 7 8 10 11 8 6 8 7 7 8 7 7 7 6 6
12 10 8 5 2 3 6 5 6 6 7 7 4 5 7 6 4 1 3 3 1 3 2 3 5 6 5 5 7 8 4 4 7 6 4 4 6 6 6 6 5 4 2 2 5 6 4 6 6 5 2 1 3 4 6 5 5 6 3 4 4 3 4 4 4 4 4 8 12 8 2 3 5 6 8 9 12 12 8 8 8 7 8 9 8 6 5 5
10 7 6 6 6 6 8 8 8 8 8 6 4 6 9 7 1 2 3 3 2 4 3 2 6 7 5 5 4 6 4 4 6 6 5 5 5 4 5 7 8 4 0 2 3 3 4 5 4 3 2 1 3 2 1 2 4 4 2 4 3 2 1 3 3 3 5 8 12 10 3 3 5 7 8 10 13 11 7 7 6 6 9 9 6 5 5 5
10 8 9 11 11 12 11 10 10 10 6 7 8 8 9 4 1 1 2 4 2 4 5 4 5 6 6 4 3 4 3 3 5 6 5 5 4 3 4 5 7 5 2 3 2 1 3 5 7 3 1 1 0 2 3 1 3 4 2 4 1 3 4 3 4 5 5 6 7 5 3 3 4 11 12 9 10 9 7 8 8 9 10 8 5 3 4 6
12 12 14 17 18 18 15 12 11 7 4 8 10 7 4 2 1 1 1 2 1 3 6 6 6 6 6 5 5 7 4 2 4 5 3 3 3 3 3 2 4 4 4 2 2 2 2 6 9 6 3 2 4 4 2 1 1 2 2 1 3 5 6 2 4 4 2 4 5 4 6 4 4 10 10 7 10 10 9 10 10 10 9 8 5 6 7 6
14 14 14 20 22 20 17 11 9 11 9 9 10 5 2 1 2 2 1 2 1 2 3 4 4 4 4 4 5 8 6 4 5 4 3 3 3 3 3 2 2 2 2 0 1 1 1 5 8 4 4 5 4 3 3 3 2 1 2 4 3 1 3 3 2 3 4 3 4 6 12 8 3 6 8 9 11 11 11 14 13 11 9 8 6 7 7 7
10 9 11 20 23 19 13 6 9 12 9 9 9 4 2 1 2 3 1 1 1 1 5 3 1 2 2 2 4 7 6 5 5 5 3 2 2 2 3 3 3 1 2 1 1 2 0 4 8 3 3 7 2 2 4 4 2 2 3 3 1 1 2 1 0 1 3 4 4 9 15 8 2 5 6 8 9 11 14 16 13 11 10 10 9 8 9 8
3 4 5 17 21 15 13 14 14 11 9 8 6 2 2 1 2 2 2 1 1 2 4 2 1 2 2 1 2 5 4 3 4 4 3 2 3 2 4 1 3 4 5 1 1 3 1 1 6 5 4 6 4 3 3 6 4 2 2 3 1 2 4 2 1 2 2 4 3 8 12 7 5 6 4 8 11 12 15 14 11 11 12 13 12 10 9 8
2 4 3 17 17 9 19 27 18 9 8 6 3 2 2 0 2 2 4 2 0 2 2 1 1 3 2 3 2 2 3 2 3 2 2 1 3 1 2 1 2 6 6 2 1 2 2 1 4 7 6 5 4 2 3 4 4 2 3 3 3 3 1 2 2 2 3 3 3 5 9 9 6 3 5 11 13 13 13 12 11 14 15 16 14 12 10 9
4 4 4 19 14 1 11 22 13 5 6 5 2 3 2 1 1 2 2 1 1 0 1 2 2 2 1 3 3 2 3 3 2 1 1 2 3 2 1 3 1 4 4 4 2 1 1 1 2 5 6 4 6 7 5 5 5 3 2 3 5 4 1 3 5 3 2 3 3 4 8 12 10 6 7 10 11 11 12 12 14 17 18 17 16 15 14 12
7 4 6 18 10 8 13 10 4 4 5 3 2 2 1 1 1 2 1 1 1 1 2 2 2 1 0 1 2 1 2 2 2 2 0 1 0 1 3 4 2 1 1 1 2 2 1 2 1 5 5 7 14 10 2 3 3 3 4 3 3 2 3 3 6 5 3 3 4 3 7 13 12 7 6 7 8 12 15 19 21 21 20 20 21 22 22 17
4 3 8 16 5 10 16 7 4 6 4 0 1 1 1 2 1 2 2 2 1 1 3 2 1 1 0 1 1 1 1 1 1 1 1 2 3 4 3 1 2 2 2 1 2 0 0 1 0 5 6 7 12 6 2 2 1 1 5 3 3 2 3 6 6 3 3 6 6 3 5 10 11 6 5 11 18 21 22 24 26 24 22 24 26 26 27 23
3 3 7 18 10 7 9 5 2 4 2 1 3 2 2 2 1 2 2 2 1 1 2 0 1 0 1 2 2 2 2 1 1 1 1 3 3 2 1 2 2 2 2 2 1 1 2 0 1 4 6 8 9 6 3 2 1 3 6 5 5 5 3 3 3 1 2 8 10 6 6 10 9 8 15 22 25 25 24 23 23 21 19 21 21 21 23 24
5 2 4 17 22 14 5 4 6 5 3 3 5 3 3 2 1 1 1 1 1 2 2 1 1 1 2 1 1 2 2 1 2 2 2 3 3 1 2 3 3 3 2 1 0 0 2 2 2 1 2 5 8 8 7 6 5 5 8 11 10 5 4 4 4 1 4 9 10 6 6 11 9 15 22 24 23 23 24 23 20 18 18 19 19 18 19 19
4 4 3 8 15 11 4 2 5 6 4 5 4 3 3 2 2 2 3 1 2 2 1 1 1 1 2 4 4 3 3 1 2 2 3 4 4 2 3 4 3 3 3 1 1 1 1 2 3 5 6 6 7 11 8 3 5 10 14 19 19 10 4 4 2 4 7 8 8 9 12 12 9 18 22 22 21 21 21 21 18 15 16 18 17 17 17 16
3 3 2 1 4 5 5 5 5 4 3 4 3 1 1 1 3 1 2 2 1 0 0 1 3 4 4 5 4 3 5 5 3 2 3 4 4 5 3 4 3 4 3 2 2 2 2 4 5 8 11 11 12 15 11 5 8 14 16 18 21 16 7 2 6 11 11 8 8 11 13 10 11 18 20 19 18 18 19 19 17 13 12 15 16 18 20 19
3 3 1 2 2 2 3 4 4 6 5 4 4 1 1 2 2 0 2 2 2 2 2 3 5 6 5 4 2 3 6 6 4 3 3 3 4 7 5 1 2 2 3 1 1 3 2 4 5 6 8 12 13 14 13 10 10 12 14 17 18 17 14 12 14 15 12 6 7 13 15 12 13 18 20 18 17 17 17 17 16 15 15 17 19 19 20 20
3 4 1 3 4 3 2 1 3 7 6 4 3 2 2 2 1 1 2 3 4 4 4 3 6 8 6 3 2 1 3 4 4 5 2 3 4 4 4 4 1 2 3 1 2 2 2 4 5 3 7 13 13 12 12 10 8 9 15 18 14 12 13 14 12 12 10 8 9 14 14 11 13 17 18 18 17 15 15 16 18 20 20 18 19 20 20 20
3 4 1 4 5 2 1 1 3 5 4 4 4 2 1 2 1 2 3 4 3 5 5 4 7 9 6 2 2 0 3 2 4 7 2 2 5 2 3 4 2 2 2 1 2 1 1 3 4 3 7 14 13 9 6 4 6 11 15 16 14 12 13 11 10 12 12 11 14 15 12 11 12 15 18 19 17 16 18 20 19 20 20 18 18 19 20 21
5 5 6 7 4 3 2 3 3 5 4 4 3 1 3 3 2 2 2 2 2 1 2 3 6 7 4 2 1 4 6 5 7 10 6 4 6 4 3 2 1 3 5 2 1 2 0 3 4 6 5 13 15 12 10 9 9 8 11 16 16 15 15 10 6 8 10 11 15 16 12 11 12 15 18 18 17 19 21 21 20 20 20 18 18 20 21 20
7 5 5 7 4 3 3 4 4 5 2 3 2 2 3 2 2 2 2 1 2 2 2 0 2 3 4 5 4 4 6 6 8 9 6 6 7 6 5 4 2 1 3 2 1 0 1 1 3 4 3 12 16 15 15 15 10 5 6 12 15 16 15 7 3 7 9 8 11 10 8 10 12 14 15 15 17 19 18 18 19 20 18 16 17 20 20 19
Wind_Direction
278 283 293 296 294 287 260 284 263 289 294 299 301 300 301 299 304 305 307 307 305 308 306 307 300 290 294 282 284 296 318 345 32 35 38 3 346 339 329 333 341 343 344 337 345 353 342 342 341 338 324 304 358 180 338 51 76 55 87 162 251 244 241 229 257 276 264 246 222 203 175 157 197 229 170 320 279 227 269 269 270 276 258 252 170 154 157 164
273 262 254 202 225 250 208 349 313 323 315 309 310 303 304 302 305 306 306 308 307 308 305 304 298 288 288 273 272 282 308 318 349 27 18 357 351 337 327 336 339 339 339 343 357 360 350 327 325 338 347 333 311 174 45 356 64 93 151 216 242 226 231 210 204 278 341 277 226 223 200 176 196 200 156 224 253 241 249 259 261 275 274 266 174 147 151 158
228 204 180 163 192 140 65 21 10 345 328 313 309 303 306 305 307 310 309 312 312 312 310 315 313 294 274 250 257 272 299 329 337 356 356 354 349 329 326 329 330 334 329 336 347 338 319 296 302 318 343 316 284 180 128 336 31 157 157 237 243 236 268 313 38 331 316 273 208 236 212 200 214 182 151 211 239 236 229 235 226 242 250 249 206 157 159 162
176 174 168 164 155 64 56 37 18 340 322 311 309 308 310 311 314 314 313 314 315 330 342 346 337 301 243 219 234 254 296 13 360 319 346 353 344 321 316 316 323 328 318 319 317 306 295 290 293 298 317 293 295 55 96 256 335 225 147 200 238 272 312 300 43 348 312 333 227 225 181 214 230 183 175 177 223 246 232 226 213 225 233 228 223 182 173 174
165 170 169 140 106 73 63 27 342 322 315 310 312 314 316 320 320 316 315 311 306 14 3 4 6 15 163 180 205 213 80 42 311 330 350 352 341 312 305 313 319 318 314 311 300 301 300 286 278 317 339 267 317 21 310 254 121 286 236 207 223 82 284 269 77 344 316 328 306 176 166 224 224 209 200 171 210 239 221 216 215 222 228 219 217 201 185 186
166 176 161 124 110 88 16 334 321 316 311 313 319 322 328 330 328 326 322 297 156 30 10 14 25 47 111 137 171 183 110 95 305 346 351 349 345 320 310 310 319 328 317 310 311 311 305 287 246 284 285 235 294 266 258 292 107 193 277 240 238 148 237 265 85 313 319 336 327 156 208 252 213 256 234 201 227 237 212 205 211 220 224 220 219 209 197 197
179 178 160 150 143 318 320 319 315 312 313 319 324 328 339 338 340 344 338 194 165 34 23 16 23 41 78 103 116 120 107 177 328 353 349 352 353 339 331 317 334 346 325 316 319 312 320 325 261 220 220 271 272 208 270 319 83 167 267 284 274 243 228 222 186 267 284 272 254 187 293 284 220 258 271 241 243 242 238 228 217 223 225 220 218 217 211 205
190 185 180 195 256 301 310 309 310 313 318 321 324 333 340 332 325 329 324 209 172 56 27 353 351 3 13 23 346 13 49 318 338 354 355 0 1 352 348 345 353 344 326 309 297 292 324 330 286 241 273 263 220 148 325 349 10 168 239 280 271 255 224 195 207 243 248 254 249 292 297 253 232 255 281 265 257 244 237 233 231 234 238 234 227 228 224 217
192 195 207 241 280 294 300 304 311 315 318 313 293 298 316 324 318 310 296 237 205 159 323 331 329 331 322 290 77 28 331 338 346 355 2 0 0 358 350 352 355 341 331 312 305 345 355 321 304 282 180 221 144 141 354 24 309 225 228 281 297 290 268 220 243 236 227 243 243 284 275 260 258 287 277 263 256 251 239 232 235 232 239 241 235 233 229 230
200 211 230 264 278 280 296 307 312 314 316 282 254 280 307 331 340 328 257 220 214 266 315 337 338 349 338 306 96 68 323 354 359 5 6 354 356 8 12 4 351 344 343 339 26 38 78 252 300 301 138 138 70 200 26 149 229 252 243 296 290 277 284 239 237 245 232 251 223 232 271 276 283 301 271 264 253 243 236 238 237 227 234 237 233 233 229 231
210 224 244 266 261 268 301 308 310 307 284 254 259 290 308 336 16 51 115 201 236 281 325 349 347 2 17 47 91 109 338 6 12 10 2 349 352 10 24 17 1 355 353 21 43 27 2 304 316 26 80 15 357 335 285 217 258 297 324 328 299 284 291 251 238 252 239 276 221 198 268 279 278 212 244 259 260 226 223 244 239 228 233 235 233 231 227 229
222 237 252 252 247 288 308 305 300 283 256 266 274 293 311 320 14 61 63 52 255 275 326 347 348 350 23 61 73 52 10 22 15 5 353 347 349 355 22 16 12 12 7 33 18 5 353 334 14 67 337 189 25 344 293 273 350 320 23 340 305 333 311 254 235 219 167 234 196 141 291 279 218 226 242 253 263 251 239 253 247 234 234 235 235 233 230 231
233 244 247 241 284 311 311 298 286 255 253 277 289 300 312 310 301 312 14 22 75 163 327 337 347 350 38 59 336 26 27 24 11 2 351 348 348 336 10 5 4 10 16 31 14 12 8 348 65 103 64 91 176 269 266 326 33 326 2 172 305 355 318 263 219 170 161 210 166 98 311 280 236 234 248 260 266 262 249 252 251 241 239 238 236 235 235 232
235 243 243 268 317 316 306 311 295 269 284 301 306 311 312 319 320 295 341 26 86 127 310 330 341 358 66 140 267 14 11 4 5 359 353 346 348 344 345 351 345 342 360 26 25 20 15 5 71 88 51 81 205 311 15 352 32 339 327 332 344 355 293 295 264 149 156 231 133 102 253 273 274 257 261 273 268 250 242 251 253 247 245 242 238 235 236 233
221 231 251 316 323 316 340 39 65 324 326 318 321 342 16 40 30 22 19 63 94 55 337 346 344 357 77 145 277 351 343 344 355 355 352 339 343 342 335 341 337 319 318 2 17 349 337 355 54 73 4 13 36 16 352 343 357 18 3 322 333 310 278 307 298 163 179 263 108 119 237 272 282 278 263 280 317 297 259 263 258 249 246 240 240 234 234 237
207 220 289 331 326 71 84 106 91 32 9 2 27 56 76 75 55 55 46 113 104 38 8 355 346 86 108 338 317 350 344 344 348 352 354 334 331 324 325 335 337 323 286 293 320 321 322 16 53 112 65 19 20 351 351 11 344 360 43 301 300 316 313 318 308 242 178 303 106 196 254 276 285 292 283 292 325 308 280 275 265 251 244 237 238 236 234 239
203 219 326 344 96 111 115 121 105 61 42 55 78 79 76 68 51 53 26 148 121 357 355 356 355 83 100 346 330 340 334 335 342 351 356 343 326 314 323 333 335 337 322 305 298 304 327 31 45 68 56 29 2 10 34 19 328 329 22 333 290 303 319 318 311 327 11 345 276 247 257 266 278 294 296 298 302 286 273 271 267 259 249 240 237 237 235 232
198 208 359 150 137 124 122 116 108 85 71 75 88 92 86 72 60 58 47 176 239 320 340 350 3 65 25 343 328 316 320 327 336 346 353 347 325 309 315 294 289 328 343 340 332 341 342 1 52 36 23 13 14 54 56 336 274 288 316 327 312 314 308 293 292 315 14 360 291 281 273 274 283 292 296 299 300 285 274 268 267 264 256 250 246 244 242 232
190 144 136 154 128 121 123 121 117 105 93 80 82 111 105 67 54 53 45 51 53 10 34 324 6 116 275 313 310 320 320 316 321 342 355 354 334 316 316 283 276 340 17 7 336 343 32 22 38 37 347 334 357 75 133 217 222 248 273 283 294 305 297 279 277 288 354 341 286 274 278 289 298 299 299 303 306 294 280 274 271 270 268 263 254 249 242 230
171 121 148 142 124 130 126 123 120 110 99 81 80 108 64 360 21 27 27 41 68 109 154 263 25 109 303 293 315 337 334 300 280 353 1 356 337 333 346 358 16 27 39 252 288 320 88 62 34 285 266 267 279 255 172 224 243 258 302 314 293 294 292 283 282 299 356 340 266 261 288 299 300 299 300 304 309 302 288 287 287 282 284 275 254 250 242 232
150 143 156 140 132 132 124 117 109 110 113 54 65 75 54 281 68 20 335 6 342 55 112 262 121 99 316 273 319 343 353 312 292 352 1 358 353 1 350 12 35 19 318 246 261 342 67 65 334 245 239 252 271 278 283 315 324 340 332 322 314 293 276 284 286 317 12 4 289 286 309 305 298 299 300 304 308 305 302 300 293 293 305 304 285 271 253 254
155 159 161 142 136 130 121 109 92 119 137 71 106 95 120 134 100 169 188 57 330 3 29 360 57 51 302 281 345 351 54 15 331 338 358 358 7 11 333 29 51 354 329 357 16 4 40 42 295 270 282 314 293 278 320 336 358 360 337 332 320 295 284 293 303 2 6 358 302 312 325 301 293 295 295 303 309 304 307 296 275 290 1 27 33 41 66 60
164 168 159 144 141 128 104 82 68 113 138 132 119 107 116 105 91 195 165 102 333 346 16 20 37 3 341 9 4 8 64 37 332 315 351 359 4 14 37 33 15 348 5 26 47 39 28 313 289 323 5 3 332 338 19 8 11 358 327 330 308 311 338 312 328 354 330 277 278 312 318 292 294 308 304 315 336 332 326 328 316 330 62 80 67 62 74 76
171 170 158 152 148 125 78 57 63 110 132 137 118 107 116 86 49 141 155 100 16 329 321 329 56 22 360 349 357 10 67 50 306 306 349 9 353 348 55 27 8 13 2 14 71 85 63 271 298 2 351 18 358 354 32 27 353 329 299 287 288 303 314 275 303 330 317 290 325 341 332 301 306 334 323 326 354 356 351 357 355 352 7 45 57 57 68 81
171 167 159 162 159 135 77 57 86 111 121 125 117 111 107 69 27 24 89 72 10 311 322 349 58 15 339 322 353 4 133 16 269 295 343 19 3 348 30 350 35 13 336 0 60 82 359 275 349 11 344 23 23 352 20 35 354 330 292 228 249 296 301 295 325 338 342 343 9 39 8 298 304 333 313 316 347 347 356 5 358 358 8 32 49 46 48 62
169 165 163 169 171 160 90 81 117 123 130 124 136 143 108 67 14 11 61 73 10 308 348 357 356 357 344 340 339 110 99 345 295 319 351 14 7 107 43 342 29 14 321 353 47 90 335 321 21 32 353 19 31 8 350 45 25 332 278 229 267 316 315 317 349 359 355 304 294 73 102 273 313 326 297 318 349 338 354 3 1 23 33 32 33 31 48 58
167 164 165 172 176 182 263 163 146 140 163 299 208 218 251 308 348 359 56 57 9 343 3 334 325 360 346 336 340 80 91 309 319 13 13 11 351 142 60 3 12 353 299 52 25 319 330 348 9 27 29 28 29 1 318 54 37 298 260 346 322 320 312 313 354 329 242 281 302 11 126 246 307 291 287 324 359 342 352 358 359 46 79 90 317 298 99 113
165 163 162 165 170 179 82 153 166 180 313 302 302 285 265 290 330 7 86 70 353 14 25 304 331 354 339 342 7 75 139 301 14 355 354 19 7 23 70 21 24 323 313 76 22 298 347 15 5 20 32 29 13 292 277 59 34 268 265 322 305 296 289 286 285 248 262 3 321 322 75 323 287 283 299 340 24 347 331 325 321 351 135 162 187 206 194 183
162 160 156 155 149 100 80 136 185 258 278 297 328 336 282 340 10 47 80 94 335 346 225 323 348 340 344 356 16 41 356 352 68 310 335 20 9 19 90 6 50 354 339 66 53 283 334 36 207 69 51 351 281 262 255 157 250 272 296 312 299 299 279 235 157 249 3 35 277 283 11 56 292 294 309 348 32 330 295 290 286 279 243 208 203 212 219 218
160 159 155 152 140 80 66 89 41 279 284 314 346 354 8 49 58 59 45 57 351 323 316 22 358 333 5 11 355 3 13 355 334 340 358 22 7 18 79 352 56 69 6 27 51 290 310 294 203 99 101 237 273 277 258 196 236 304 347 334 328 4 37 53 67 76 44 347 258 255 188 98 305 292 281 290 309 260 262 285 288 291 293 267 245 236 233 232
154 156 156 155 149 52 26 42 3 312 306 335 341 349 42 35 58 82 61 351 332 337 355 4 335 351 15 26 356 347 1 341 340 21 16 6 16 19 29 14 20 46 13 5 8 346 349 6 337 295 245 202 355 315 311 335 10 9 15 6 354 351 10 16 360 39 44 302 263 261 318 78 244 265 274 283 288 265 244 262 275 283 286 277 262 247 236 236
146 150 151 143 149 25 18 357 323 323 328 331 334 22 76 41 33 73 339 325 346 344 349 320 313 345 348 11 15 344 339 346 356 45 34 22 38 33 39 28 355 8 12 2 354 347 349 337 305 301 303 55 33 339 339 358 22 22 18 35 28 358 359 358 337 2 358 273 267 292 339 293 243 253 269 280 291 296 267 246 243 252 269 276 266 254 247 247
139 149 141 99 74 14 9 346 329 332 325 323 351 53 79 74 44 348 307 343 10 324 326 291 299 320 340 18 8 338 346 1 356 21 35 53 55 38 38 32 24 30 349 333 359 353 337 310 321 348 341 75 77 28 357 332 342 354 10 69 66 37 7 322 303 331 306 280 290 307 312 270 289 276 257 273 295 303 288 250 235 240 257 263 261 275 294 285
126 140 125 75 48 23 4 348 340 334 335 358 57 58 63 75 41 336 337 308 282 332 340 309 315 331 17 43 354 341 7 346 353 21 20 29 39 16 7 6 16 33 231 11 21 19 4 318 311 358 329 5 55 71 164 247 299 293 209 129 114 119 121 250 255 294 290 287 301 317 311 244 301 298 270 282 298 304 294 268 268 270 265 269 292 329 322 288
117 100 75 53 37 22 10 358 343 333 352 56 71 59 67 86 274 345 340 289 298 335 318 319 3 16 14 2 335 3 16 308 348 38 36 31 46 16 1 348 351 13 43 25 349 25 27 278 263 282 260 142 327 239 171 122 309 273 180 89 59 184 167 202 226 230 265 296 296 305 283 233 281 292 286 295 306 311 313 305 313 305 295 314 335 308 254 255
106 79 56 38 25 13 6 360 358 11 81 86 68 59 82 151 241 142 252 301 340 313 316 345 26 35 354 336 345 351 351 311 349 30 37 39 57 21 6 305 322 15 58 56 313 358 19 279 280 318 338 195 193 211 202 174 280 321 22 6 251 195 154 171 271 265 333 311 281 278 282 295 333 300 300 332 324 316 320 317 313 303 308 327 306 243 241 251
91 75 53 28 16 9 3 4 37 70 92 81 73 87 134 190 189 183 252 343 340 293 4 25 21 25 354 337 338 333 341 359 1 21 25 12 30 16 1 293 280 29 68 146 272 257 193 287 291 306 306 272 200 182 264 238 177 62 303 260 266 78 113 125 280 333 4 295 278 288 282 293 349 297 308 333 320 314 320 318 312 306 312 316 283 248 251 256
95 86 55 21 11 8 7 34 78 76 77 70 74 107 110 98 190 203 215 16 301 9 55 64 26 41 32 350 319 317 343 10 357 8 25 6 9 59 49 321 285 333 345 345 298 286 163 301 296 274 271 289 299 73 322 294 212 169 246 265 7 8 310 340 328 314 320 289 283 288 285 283 220 244 286 310 305 312 315 311 309 309 315 316 299 271 263 266
91 95 45 6 7 23 52 84 87 64 65 74 74 100 100 97 244 226 177 153 152 86 59 33 311 32 38 43 326 311 344 14 345 2 51 24 344 73 97 338 292 322 337 42 185 289 10 330 293 292 296 312 349 34 334 309 315 345 330 321 359 183 214 243 211 173 237 268 276 290 293 287 220 218 258 285 294 306 305 303 305 307 312 315 309 290 272 266
49 91 24 354 5 49 67 69 66 43 59 84 113 101 75 181 275 253 193 180 192 112 83 325 360 23 350 2 6 323 345 351 326 360 53 357 331 354 103 97 310 317 330 30 123 309 5 120 267 288 312 345 352 295 252 272 291 337 348 318 289 263 245 278 270 163 182 233 252 286 290 281 262 252 282 292 299 303 301 306 315 317 318 317 312 299 280 267
49 91 340 350 359 102 61 55 49 37 68 70 94 85 57 164 291 303 223 198 284 190 117 134 99 55 347 359 355 320 336 326 320 26 4 351 18 339 245 157 164 309 341 26 26 322 346 167 238 294 323 334 282 251 209 212 213 190 221 247 241 251 311 318 289 263 188 193 211 258 280 279 281 295 298 294 296 299 306 316 318 316 315 312 310 306 296 277
56 91 336 351 15 96 72 52 11 39 78 62 67 98 75 127 82 329 287 25 359 295 37 87 98 60 73 355 319 300 338 315 327 22 295 249 91 228 210 164 173 223 118 343 286 231 158 120 198 270 267 262 273 273 189 193 205 184 213 215 215 214 144 205 266 277 280 260 233 234 263 273 284 298 296 302 319 330 336 338 337 332 330 333 339 341 333 315
69 122 6 5 25 102 75 61 343 35 74 132 52 57 36 80 50 353 10 24 10 344 24 43 55 38 173 213 321 312 276 218 266 324 269 260 248 216 193 194 259 196 152 255 286 295 73 103 195 283 279 272 280 290 102 115 80 269 263 232 208 234 179 200 231 238 262 275 269 252 255 271 288 308 352 3 2 358 353 352 356 357 357 359 1 0 356 349
100 149 20 24 43 102 83 93 113 72 97 72 52 27 12 53 57 26 12 360 357 77 65 340 256 68 221 196 157 239 267 112 236 278 283 261 252 214 201 267 256 184 187 236 280 344 297 211 50 332 325 324 324 339 350 316 341 267 266 253 226 228 226 249 270 144 233 263 257 249 253 265 287 352 19 12 5 0 355 355 2 4 4 5 3 360 359 358
70 76 349 25 44 64 93 145 136 127 139 96 69 38 25 30 40 126 196 305 269 170 150 263 221 138 251 229 117 271 291 96 258 319 1 279 267 314 253 239 214 193 206 215 166 340 262 218 124 82 313 315 319 316 307 307 315 297 285 289 283 251 206 247 301 251 231 259 256 243 258 269 308 10 14 6 360 356 352 351 356 360 360 360 358 357 357 357
73 55 338 6 32 48 66 95 96 108 132 113 71 26 53 44 300 226 179 209 256 197 177 314 18 71 356 27 29 318 308 319 288 335 351 287 277 283 216 201 215 213 183 174 204 122 39 259 210 185 204 230 255 267 275 306 303 293 292 295 297 292 209 192 293 260 252 273 268 257 268 282 343 14 4 356 355 350 347 347 348 352 355 352 350 348 347 348
95 81 70 28 12 28 34 22 44 74 116 121 103 24 60 16 312 267 182 215 235 171 33 23 49 41 3 14 21 325 313 331 333 326 301 273 273 294 252 175 211 228 169 159 208 129 53 295 249 211 220 234 247 262 279 299 278 279 285 286 290 299 304 276 267 263 266 280 284 293 306 326 8 8 353 349 350 342 339 340 336 333 339 342 342 342 342 342
80 120 153 121 85 59 47 24 53 71 59 84 110 119 72 21 360 208 265 307 8 32 20 21 29 27 3 352 24 338 324 338 342 310 306 305 314 325 322 235 196 188 134 88 269 137 119 277 252 215 236 252 255 263 276 279 272 274 278 279 286 300 304 288 276 279 286 295 316 339 358 13 9 356 347 342 338 331 328 328 324 323 329 337 341 341 340 338
85 100 2 46 91 137 152 67 80 76 57 66 87 80 116 108 6 286 326 360 1 2 34 23 345 349 346 326 113 39 326 347 326 298 312 329 316 324 312 293 241 124 103 64 268 177 141 268 266 249 272 275 270 266 263 263 280 289 285 290 301 307 300 294 298 318 345 15 6 359 8 13 360 349 340 332 326 320 320 324 328 332 333 336 340 340 339 337
127 130 116 66 71 106 141 43 74 77 46 49 73 55 101 110 35 344 19 39 3 347 25 24 323 320 316 287 124 211 257 182 245 260 246 335 301 240 238 272 276 341 7 34 277 317 128 274 308 360 312 296 292 287 269 252 282 294 303 324 344 351 351 357 2 3 16 18 2 358 1 355 348 342 333 325 320 321 327 329 330 331 331 331 338 340 338 334
93 120 133 109 64 14 19 13 63 83 32 13 60 47 25 43 40 16 17 54 83 22 2 343 311 309 326 9 76 250 242 201 229 248 236 242 261 237 232 266 40 354 339 344 327 350 347 279 340 23 336 302 303 318 329 318 303 313 346 0 4 8 17 35 49 31 30 11 356 0 359 340 332 331 325 317 314 319 325 327 327 327 327 332 339 339 333 329
90 95 109 103 76 17 16 4 32 72 48 3 39 29 25 31 2 32 53 43 70 110 170 225 312 325 355 351 322 268 245 236 248 259 250 239 253 259 262 279 331 351 306 315 312 284 142 298 333 6 326 294 301 324 333 323 326 1 17 5 7 11 10 11 50 44 42 29 5 355 330 306 305 308 307 308 317 322 321 324 324 320 321 331 336 331 325 320
Height
803 804 804 804 804 804 804 804 804 804 805 804 804 804 804 803 803 802 801 800 800 799 798 798 797 797 797 797 797 797 797 797 797 795 795 796 795 794 793 792 791 790 790 789 788 787 786 785 784 783 783 783 784 784 784 784 785 788 795 801 803 800 798 794 794 795 791 790 791 790 788 789 790 789 787 788 789 789 790 787 785 783 781 781 782 782 781 783
804 804 804 804 804 804 804 804 804 804 804 804 804 804 803 803 802 801 801 800 799 799 798 797 797 797 797 797 797 797 797 797 797 796 796 796 794 794 793 792 792 791 790 789 788 788 788 787 785 784 785 786 785 785 786 785 786 790 796 801 800 797 793 791 792 791 792 792 791 791 789 789 789 788 788 790 790 790 790 788 787 785 782 781 782 782 782 783
804 804 804 804 804 804 804 804 804 804 804 804 804 803 803 802 802 801 800 800 799 798 798 797 796 796 796 797 796 797 797 797 797 797 796 795 795 794 793 793 792 791 790 789 789 788 788 787 786 786 787 788 786 785 787 787 788 790 795 800 796 793 791 791 790 790 791 791 791 791 789 789 787 787 788 789 790 789 788 786 786 785 781 780 781 782 782 783
804 804 804 804 804 804 804 805 805 804 804 804 803 803 802 802 801 800 800 799 799 798 798 797 796 795 795 795 796 797 796 798 799 798 797 795 795 794 793 793 791 791 790 789 788 787 787 787 786 786 788 789 786 785 788 788 789 790 793 796 793 791 791 790 790 790 790 789 790 789 789 790 786 786 787 788 791 788 784 781 781 780 778 779 780 781 781 782
804 804 804 805 805 805 805 805 804 804 804 803 803 802 802 801 801 800 800 799 799 799 798 797 796 795 795 795 796 796 798 803 801 797 796 795 794 794 793 792 791 790 789 789 788 787 787 786 786 787 788 790 788 787 789 788 789 791 792 792 791 791 791 790 791 791 789 788 788 788 788 787 784 784 785 786 787 780 776 776 776 775 775 776 776 778 779 779
805 805 805 805 805 805 805 805 804 804 804 803 803 802 802 802 801 800 799 799 799 799 799 798 797 796 796 796 797 797 800 805 801 796 797 795 794 793 792 791 791 790 789 788 788 787 787 786 787 789 789 790 790 789 791 788 788 792 792 790 790 790 790 790 790 790 789 788 788 788 787 784 784 783 781 781 778 771 771 771 772 772 771 772 772 774 775 776
805 805 805 805 805 805 805 805 804 804 803 803 803 802 802 801 801 800 800 800 800 800 800 799 798 798 798 798 799 798 800 802 799 797 797 795 794 792 791 791 790 790 789 788 788 787 787 787 788 789 789 790 790 790 792 789 788 792 793 791 789 789 789 789 789 789 789 788 787 787 785 784 784 783 780 775 770 768 768 767 768 769 768 770 770 770 770 771
805 805 805 805 805 805 805 804 804 803 803 803 803 803 802 802 801 801 800 800 800 800 800 800 799 799 799 799 799 800 801 801 798 797 796 795 794 793 792 791 790 790 789 788 788 787 787 788 787 787 789 791 790 791 792 791 791 793 793 792 790 788 788 788 788 788 788 787 786 785 785 783 782 783 780 770 765 764 764 764 765 765 765 766 766 765 766 766
804 805 805 805 805 805 805 804 804 804 803 803 803 803 803 802 801 800 800 800 800 801 800 800 800 799 800 800 800 803 803 800 799 797 796 795 794 793 792 791 791 790 789 788 787 787 787 788 787 786 789 790 790 791 793 794 794 794 793 792 790 789 788 787 787 787 787 785 785 785 784 782 781 783 776 763 759 759 759 762 761 762 763 761 761 761 761 761
804 805 805 805 805 805 804 804 804 804 804 804 804 803 803 803 801 800 800 800 800 801 801 801 801 800 800 799 800 805 803 799 799 798 796 796 794 793 792 791 790 789 788 787 786 786 787 788 787 785 786 788 790 793 795 796 795 794 793 792 791 790 788 787 786 786 786 784 784 786 784 781 781 785 776 757 753 756 757 759 758 760 760 757 757 757 757 757
804 805 805 805 805 805 805 804 804 804 804 804 804 804 804 803 802 800 800 801 801 801 801 801 801 800 800 799 802 806 802 799 799 797 797 796 795 793 792 791 790 789 788 787 787 786 787 787 785 785 787 790 792 794 795 794 794 793 793 793 791 790 789 787 786 785 786 785 782 784 784 782 783 785 773 756 752 755 756 756 756 757 756 754 754 753 754 754
804 805 805 806 806 805 804 804 804 804 804 804 804 804 804 804 803 802 802 802 802 802 801 801 801 800 800 801 803 804 801 799 799 797 797 796 795 794 793 792 791 790 788 787 787 787 787 786 785 787 791 792 794 796 795 794 795 793 793 795 792 791 789 784 784 784 785 785 781 784 784 779 782 776 762 754 753 755 757 755 753 753 752 751 751 751 751 750
805 805 805 806 806 805 805 805 804 804 804 804 804 804 804 804 803 803 802 802 802 802 801 801 801 800 801 803 804 802 800 800 799 798 797 796 795 794 793 793 791 790 789 788 788 787 787 786 786 789 790 792 795 796 794 794 794 793 795 796 795 795 788 780 782 783 784 785 780 785 786 773 770 766 756 755 755 756 758 754 752 751 750 749 749 749 749 748
805 805 806 806 806 805 805 804 804 805 804 805 804 804 804 803 803 803 802 803 802 802 802 801 801 800 802 804 802 800 801 800 799 798 797 796 795 794 793 792 791 791 790 789 789 788 788 787 787 789 791 794 795 794 795 796 795 796 796 797 801 802 789 780 784 784 785 786 780 787 792 775 763 761 757 754 754 755 756 752 751 750 749 748 747 747 746 745
805 805 806 806 806 805 805 805 805 805 805 805 804 804 804 803 803 803 803 803 802 802 802 801 801 800 803 804 801 801 801 799 799 798 797 796 795 794 793 792 791 790 790 789 789 788 788 788 788 792 795 795 795 797 799 799 798 800 799 798 803 803 794 786 784 785 785 785 784 788 792 779 763 758 756 753 752 754 754 751 750 748 746 745 744 744 743 742
804 805 805 806 806 805 805 805 805 805 805 804 804 804 804 804 804 803 803 803 802 802 801 801 800 800 805 805 801 801 801 800 799 798 797 797 795 794 793 792 790 790 790 789 788 789 788 788 791 795 797 798 801 802 802 803 801 803 805 804 802 801 801 794 784 784 786 785 787 788 788 780 764 754 753 753 754 754 754 750 746 745 743 742 740 740 740 740
804 805 805 805 805 806 806 806 806 806 805 805 804 805 804 804 804 803 803 802 803 802 801 802 799 799 804 804 802 803 801 801 800 798 798 796 795 794 793 792 791 790 789 788 788 789 789 790 795 797 799 805 809 803 800 806 808 808 812 811 806 806 809 802 790 786 787 787 788 788 789 783 769 758 753 752 754 754 752 747 742 740 739 738 738 737 737 738
804 805 805 805 806 806 806 806 807 806 806 806 805 805 805 805 804 803 803 802 802 801 802 802 800 805 810 806 806 806 802 801 800 799 798 796 795 794 793 793 791 791 791 790 790 791 791 793 797 799 803 810 814 808 805 813 818 817 819 818 814 813 812 808 798 789 789 791 790 790 789 782 772 765 755 750 752 751 747 743 739 736 735 735 735 736 735 735
804 805 805 805 806 806 807 807 807 807 807 807 807 806 805 805 804 804 803 803 804 807 810 809 807 814 816 809 807 806 802 802 801 800 798 795 794 793 792 792 792 793 795 797 795 794 795 798 801 804 809 815 819 818 817 819 822 821 824 824 821 818 813 807 800 793 793 794 791 789 786 780 773 765 756 748 748 749 743 739 738 735 734 735 735 734 733 732
805 805 805 806 806 807 807 808 808 808 808 808 808 807 807 808 808 810 808 806 810 813 815 813 811 813 813 810 807 805 802 801 801 800 797 795 793 792 792 792 794 795 798 801 799 796 798 804 811 815 818 821 821 821 820 821 822 821 823 823 820 822 815 803 796 795 796 795 789 785 784 783 775 765 757 750 747 746 741 739 738 736 734 734 733 731 730 730
805 805 806 806 807 807 808 809 809 809 809 809 808 808 811 812 813 816 814 812 813 813 812 812 811 811 811 810 808 806 805 803 801 800 798 796 794 794 795 796 798 800 801 801 799 798 799 807 818 822 822 822 821 821 820 819 820 820 821 820 818 818 812 801 797 796 797 798 791 784 786 785 774 764 757 752 748 743 740 740 738 735 734 732 731 730 730 730
805 805 806 807 808 808 809 809 809 809 809 809 809 810 812 813 814 815 815 816 814 812 812 811 811 811 810 809 808 807 808 807 804 801 800 798 795 798 801 801 803 805 805 803 802 804 804 813 822 822 823 822 820 820 819 818 819 819 819 820 817 813 809 800 796 797 800 801 791 785 791 785 771 765 758 751 749 744 740 740 737 734 733 732 731 730 730 732
805 805 806 807 808 809 809 809 809 809 809 809 810 811 812 813 813 813 814 816 815 813 813 812 812 812 810 810 809 808 809 812 812 807 803 802 801 803 804 805 806 806 808 809 809 810 811 819 824 823 823 821 817 817 817 816 817 819 819 818 815 813 812 804 797 800 803 802 795 789 792 783 767 762 755 748 748 745 741 737 735 735 735 734 734 733 733 734
805 805 807 807 808 809 809 809 809 809 810 810 810 811 812 813 812 813 813 814 816 814 813 813 813 813 813 812 811 810 812 815 815 810 807 807 806 805 806 810 809 808 812 815 812 812 817 823 825 823 822 820 817 816 818 817 818 821 818 816 813 812 816 814 810 807 801 799 798 795 791 775 763 762 757 751 749 745 743 739 737 737 737 738 738 738 738 737
805 806 808 808 809 809 809 810 810 810 811 810 811 811 812 812 812 812 812 816 821 817 814 814 814 814 814 813 812 813 814 815 815 812 809 809 809 807 808 810 811 813 815 815 812 813 819 825 824 821 820 820 818 818 821 821 821 820 815 814 815 815 819 820 819 812 803 799 796 800 797 775 763 766 761 757 754 749 747 745 743 741 740 742 743 742 741 739
805 807 808 808 809 810 810 811 810 811 811 810 811 811 811 812 812 811 813 823 829 823 818 816 816 817 814 814 814 813 817 816 813 813 811 810 811 810 811 813 814 817 817 817 817 818 821 825 824 821 820 819 817 820 823 823 824 820 814 816 818 820 820 820 821 816 810 806 798 802 804 784 772 769 761 760 758 752 750 748 746 745 745 747 747 745 741 739
806 807 808 809 810 811 810 810 811 812 811 811 811 811 812 812 811 811 816 831 836 827 822 820 819 820 817 817 815 814 823 821 812 813 813 812 812 810 814 819 819 820 821 819 819 822 824 822 821 820 820 818 817 821 821 823 826 818 813 818 819 818 819 820 824 820 816 812 800 799 803 796 786 771 761 762 759 752 751 749 748 746 745 745 746 744 740 738
806 808 809 810 811 811 810 810 811 811 811 812 810 810 812 810 811 812 819 840 843 827 825 826 820 820 819 819 817 818 825 823 819 818 814 814 814 811 816 822 824 824 823 821 821 825 825 822 822 822 821 820 819 823 823 824 825 817 815 821 820 819 821 822 823 819 820 815 797 793 800 802 792 772 763 763 759 756 753 749 749 746 743 740 739 739 737 735
807 808 809 810 811 810 810 810 810 811 811 811 810 811 811 809 812 813 820 841 842 828 829 828 821 824 825 821 820 824 824 822 826 823 816 818 816 814 819 823 825 824 823 822 823 826 827 827 829 826 823 823 821 822 825 825 823 818 818 819 815 818 820 821 821 818 820 814 795 791 797 802 794 775 765 764 760 760 756 751 749 746 744 742 738 737 735 735
808 809 810 811 811 810 810 810 810 811 810 810 810 810 810 811 814 819 832 845 841 834 833 830 830 835 835 828 825 829 828 826 828 824 821 825 822 818 821 824 825 824 824 824 823 827 832 831 831 829 827 828 826 824 825 826 824 819 819 815 809 813 817 818 820 817 815 807 793 791 796 804 802 779 763 761 760 760 758 752 747 744 743 742 740 739 737 735
808 809 811 811 811 811 811 810 811 811 810 810 810 809 810 814 819 832 848 848 841 842 840 838 842 842 841 842 838 837 833 829 830 828 827 831 832 828 825 829 831 826 826 827 826 827 828 826 828 830 831 831 828 825 824 827 828 822 821 818 810 811 813 812 813 813 813 806 793 790 795 803 803 780 760 757 757 760 759 751 746 744 741 739 739 738 736 735
809 811 811 812 812 812 811 812 812 811 811 810 810 810 812 818 832 849 855 846 845 853 852 850 850 847 847 847 846 846 841 835 835 835 836 839 844 846 845 849 848 837 834 838 836 831 824 825 831 831 831 833 829 823 822 823 824 823 822 821 819 820 820 818 816 815 815 806 791 792 799 799 792 776 762 759 756 755 755 749 744 743 741 738 736 734 734 735
811 812 812 813 813 813 813 813 811 811 811 810 810 812 815 826 848 864 861 852 856 861 860 858 855 852 851 845 848 851 845 841 840 838 841 842 847 854 857 861 860 850 845 847 847 840 829 827 830 827 827 833 830 826 827 824 823 825 824 824 826 829 835 834 827 822 819 805 790 793 801 797 785 770 760 758 753 750 750 747 744 743 741 738 734 734 735 733
813 813 814 814 814 814 813 812 812 811 810 809 810 813 821 842 863 869 865 865 867 864 863 865 858 850 849 849 854 855 846 844 845 843 843 844 848 854 857 861 862 858 853 851 851 849 842 833 828 825 827 831 829 830 832 830 828 828 826 827 827 829 837 838 828 824 822 812 799 795 793 789 782 768 758 756 751 749 749 747 746 745 741 738 737 738 736 733
814 815 815 815 815 815 814 813 812 810 809 809 816 826 840 861 873 871 871 875 874 869 866 867 859 849 849 854 856 857 853 849 847 847 849 852 855 858 862 865 865 863 857 852 851 853 853 840 827 828 832 830 829 831 834 831 827 826 825 824 825 826 829 831 826 820 821 821 812 798 785 779 778 766 755 756 752 748 748 746 745 742 738 738 740 738 735 732
815 815 815 815 816 815 813 813 810 809 809 808 823 849 867 876 878 877 880 880 879 879 871 862 859 856 858 859 856 857 857 852 849 850 852 857 861 863 866 868 868 868 863 859 857 856 855 841 827 830 831 828 831 832 833 831 823 822 823 821 822 827 827 826 824 820 823 826 814 798 786 780 781 768 751 752 752 747 748 746 743 741 738 738 737 734 732 730
815 815 816 817 817 816 814 813 811 810 808 810 832 864 880 882 884 886 886 883 885 886 874 861 862 866 867 865 861 860 858 854 854 853 854 859 862 865 868 868 868 869 868 867 862 858 860 847 833 833 828 826 836 835 830 832 828 822 821 820 823 827 825 825 827 824 827 829 813 797 790 788 790 778 756 753 754 749 748 746 742 741 739 737 734 732 730 727
815 815 816 818 818 818 814 812 813 810 808 823 852 873 878 881 885 888 888 887 887 883 872 868 869 869 870 870 867 865 862 858 858 857 858 860 863 867 870 868 868 868 871 873 864 860 864 852 835 834 831 828 835 834 826 828 831 828 824 824 825 824 823 826 829 827 831 835 821 799 791 791 789 777 762 758 757 753 751 747 744 742 739 737 735 731 729 726
815 815 819 822 820 819 816 812 814 812 814 838 864 873 876 882 885 888 889 889 888 880 873 874 874 869 871 873 871 870 868 865 864 861 861 862 864 868 873 873 870 868 873 875 868 863 865 857 840 834 834 829 826 826 824 823 828 831 829 826 824 823 824 824 823 821 826 832 825 810 797 786 775 767 763 761 758 756 753 749 746 744 740 738 735 731 728 724
815 818 824 824 820 821 818 812 815 821 832 855 871 874 878 882 884 887 889 888 884 878 874 876 876 873 873 874 874 875 873 870 868 864 863 865 864 866 876 880 874 872 875 875 871 867 864 862 849 834 832 831 823 822 824 822 824 826 824 823 822 821 819 819 818 816 818 824 824 820 805 778 761 762 763 761 759 755 753 751 748 744 740 737 735 732 728 723
815 821 827 824 821 821 816 817 832 844 854 867 874 877 881 883 882 884 888 889 884 879 878 878 878 877 877 876 875 876 875 871 868 865 865 867 865 864 875 884 882 880 875 867 867 869 864 863 859 846 838 830 819 818 821 822 822 823 821 817 817 817 818 825 826 816 813 816 814 818 811 776 755 760 762 760 759 756 754 753 750 744 740 737 734 731 728 723
819 828 831 825 823 820 819 836 857 862 865 874 877 879 882 884 882 881 884 888 884 880 880 879 879 881 880 878 877 877 875 871 867 865 865 868 866 866 875 886 887 885 878 867 867 872 868 869 868 854 841 831 820 819 826 828 826 825 824 818 816 819 820 826 828 816 812 813 807 814 813 779 753 758 761 760 763 763 763 763 759 753 748 744 743 742 739 732
826 832 831 827 825 821 825 848 868 870 875 882 882 883 884 884 882 880 882 884 882 879 879 879 880 880 879 878 878 876 873 871 868 865 865 866 866 869 878 886 885 883 880 869 866 872 870 867 863 848 835 828 818 820 829 833 828 822 819 818 818 818 817 819 821 818 817 814 810 818 816 780 754 756 764 771 780 783 782 779 776 772 767 764 764 762 758 751
830 833 832 829 825 822 830 851 866 873 879 881 880 882 885 886 883 881 881 883 882 881 878 878 880 878 878 879 878 874 871 869 866 866 867 865 867 876 883 885 883 880 877 869 868 872 864 856 855 848 839 829 817 816 821 823 825 819 813 814 814 814 818 820 821 824 823 811 805 815 811 779 755 762 779 792 799 798 794 790 787 785 782 779 777 773 770 765
830 833 836 834 828 829 843 857 862 868 874 875 877 881 881 883 886 887 884 883 884 884 879 877 879 879 879 878 877 875 873 869 867 869 871 866 867 878 883 884 883 880 877 879 881 877 864 856 854 850 847 843 835 828 822 819 822 819 812 811 811 815 821 820 820 827 823 807 800 806 798 773 766 785 803 808 807 804 800 794 789 788 785 781 780 778 775 772
832 838 843 843 841 844 856 864 863 864 870 870 874 880 880 879 884 889 887 882 882 884 879 878 880 880 879 877 876 876 874 873 873 871 871 867 864 871 879 881 882 881 881 885 886 880 870 863 857 849 844 841 835 827 822 825 828 823 818 813 810 815 821 821 825 826 817 807 802 797 784 777 793 816 820 815 814 810 805 798 791 788 785 783 781 778 775 773
837 847 852 850 850 854 860 866 867 867 869 869 873 880 881 880 880 882 883 881 882 884 881 880 883 882 882 882 881 878 875 876 876 873 873 874 869 869 876 880 881 881 882 884 884 879 869 858 853 851 844 836 831 826 825 831 833 828 825 820 814 816 821 826 827 817 808 811 807 792 786 799 821 832 826 821 820 815 809 804 796 792 789 785 780 775 771 768
841 851 857 853 854 861 864 867 871 870 869 871 877 880 879 879 878 877 880 882 883 885 882 880 883 888 891 891 886 881 878 875 873 873 875 878 876 871 870 873 878 881 881 881 883 880 869 856 852 853 847 839 838 836 834 836 836 832 830 827 820 820 822 822 818 809 808 818 820 814 818 828 834 832 826 824 821 817 814 808 800 793 787 781 777 773 770 767
845 851 858 856 859 869 872 872 872 869 869 872 876 879 880 878 878 882 887 885 881 885 885 880 885 892 894 893 889 884 883 880 877 878 879 881 883 878 869 863 871 882 882 877 879 879 869 857 854 856 850 841 838 838 836 837 838 834 828 824 824 826 823 819 820 823 826 832 837 838 838 837 833 829 827 823 819 817 813 806 798 790 782 777 776 773 771 768
843 846 854 857 862 871 873 872 870 866 870 875 874 879 884 882 882 889 894 890 883 885 889 887 891 895 893 892 890 886 886 887 884 884 885 886 885 882 873 864 867 878 879 873 874 875 867 857 856 858 849 834 827 827 829 836 839 834 829 830 834 833 829 832 841 847 846 846 846 843 839 835 831 827 825 822 817 814 809 801 795 788 781 777 775 773 772 769
841 844 848 850 861 871 869 870 872 867 871 879 879 882 886 886 890 892 894 897 894 891 894 895 895 896 892 889 887 885 888 892 890 887 889 889 884 879 874 873 875 878 877 875 874 872 869 864 860 860 852 833 818 818 828 834 830 831 844 853 851 844 843 850 859 859 856 855 851 846 844 841 834 828 825 821 816 812 806 799 792 786 781 776 774 774 773 770
843 846 846 847 860 873 873 874 875 871 876 888 890 890 890 891 896 894 888 894 899 898 898 900 898 894 888 884 884 886 891 894 892 891 892 891 890 888 884 884 888 887 883 882 879 875 876 873 865 864 858 836 819 823 834 830 821 836 864 869 858 852 851 854 858 857 855 856 856 855 852 845 836 833 828 820 814 809 803 797 792 786 781 777 776 775 773 770